Regional Weather Roundup
Issued by NWS Albany, NY

Home | Current Version | Previous Version | Text Only | Print | Product List | Glossary On
Versions: 1 2 3 4 5 6 7 8 9 10 11 12 13 14 15 16 17 18 19 20 21 22 23 24 25 26 27 28 29 30 31 32 33 34 35 36 37 38 39 40 41 42 43 44 45 46 47 48 49 50
000
ASUS41 KALY 070410
RWRALY

NEW YORK STATE HOURLY WEATHER ROUNDUP
NATIONAL WEATHER SERVICE ALBANY NY
1200 AM EDT THU MAY 07 2015

NOTE: "FAIR" INDICATES FEW OR NO CLOUDS BELOW 12,000 FEET WITH NO
SIGNIFICANT WEATHER AND/OR NO OBSTRUCTIONS TO VISIBILITY.

NYZ032-033-038>043-046>054-057>066-NYZ062>081-070500-
EAST


CITY           SKY/WX    TMP DP  RH WIND       PRES   REMARKS
ALBANY         CLEAR     61  39  44 S6        30.20R
GLENS FALLS    CLEAR     51  41  68 S3        30.19R
POUGHKEEPSIE   CLEAR     49  44  83 CALM      30.23R
NEWBURGH       CLEAR     54  46  76 CALM      30.24S
MONTGOMERY     CLEAR     49  44  83 CALM      30.23R
WHITE PLAINS   CLEAR     50  45  83 W3        30.23F
ISLIP          CLEAR     51  40  65 CALM      30.23R
NEW YORK CITY  CLEAR     60  45  57 S5        30.24S
CENTRAL PARK   CLEAR     60  42  51 CALM      30.27S
$$

NYZ005>009-017-018-044>046-055-056-070500-
CENTRAL


CITY           SKY/WX    TMP DP  RH WIND       PRES   REMARKS
FULTON         CLEAR     50  38  63 CALM      30.20S
SYRACUSE       PTCLDY    58  41  53 S5        30.21R
ROME           CLEAR     52  41  66 NE3       30.22R
ELMIRA         CLEAR     49  48  97 CALM      30.23S FOG
BINGHAMTON     CLEAR     56  47  71 SW5       30.24R
MONTICELLO     CLEAR     50  46  87 N3        30.27S
$$

NYZ026>034-041>043-070500-
NORTH


CITY           SKY/WX    TMP DP  RH WIND       PRES   REMARKS
WATERTOWN      CLEAR     46  41  82 CALM      30.18F
FORT DRUM      NOT AVBL
MASSENA        CLEAR     53  40  61 SW3       30.17S
SARANAC LAKE   CLEAR     40  32  73 CALM      30.20S
PLATTSBURGH    CLEAR     55  37  50 SW3       30.15S
$$

NYZ001>004-010>016-019>021-070500-
WEST


CITY           SKY/WX    TMP DP  RH WIND       PRES   REMARKS
NIAGARA FALLS  CLEAR     55  38  52 NE6       30.18S
BUFFALO        CLEAR     61  46  57 SE7       30.19R
DUNKIRK        CLEAR     54  51  90 CALM      30.19S
JAMESTOWN      CLEAR     57  54  88 SE5       30.22S
WELLSVILLE     CLOUDY    56  53  90 SE5       30.25R
ROCHESTER      PTCLDY    59  37  44 CALM      30.21R
PENN YAN       CLEAR     57  51  80 CALM      30.22S
$$

             KEY
       WCI = WIND CHILL INDEX
       VSB = VISIBILITY
       HX  = HEAT INDEX
$$



USA.gov is the U.S. government's official web portal to all federal, state and local government web resources and services.